ROMMA est une association bénévole à but non lucratif. Votre soutien est indispensable : ADHERER à ROMMA ou FAIRE un DON

Crest - (26, Drôme)

Vallée de la Drôme (315 m)   Longitude: 5°2' E   Latitude: 44°44' N Station partenaire n°62
 

Détail journalier du     <<     >>

Température Precipitation Humidité Pression Vent Dir Rafale Dir. rafale Ensol.
Heure (°C) (mm) (%) (hPa) (km/h) (km/h) (min)
01:00 15.1083101613SSO29SSO0
02:00 14.7085101613SSO31SSO0
03:00 14.6087101610NE24SSO0
04:00 14.6085101511SSO26SSO0
05:00 14.7085101512SSO32SO0
06:00 14.308710159NE24SSO0
07:00 14.218710158SSO29ENE0
08:00 14.409010174NE21E0
09:00 16.207610167SSO23NE0
10:00 15.50.384101511SSO27SO4
11:00 16.0084101617SSO34SSO10
12:00 17.5074101618SSO39NE5
13:00 18.1069101618NE37SSO6
14:00 19.3064101618SSO39SSO8
15:00 19.9060101616NE32SSO9
16:00 21.2053101616NE35NE16
17:00 23.6042101614NE29NE27
18:00 23.2039101613NE29NE60
19:00 23.0040101612NE27NE60
20:00 21.804410169N21N17
21:00 19.905010167N21N0
22:00 18.605810186S16S0
23:00 17.606410187SSO18S0
minuit 17.8065101812SSO26SSO0

Graphique du 12-08-2019

 

Serveur OMMA